DateTime,DeltaTime,Roll,TargetAngle,Position,Power
2022-06-02 13:54:47.152,0,-0.21,2.57,4,9.62
2022-06-02 13:54:47.267,0.114996358752251,-0.15,2.66,4,9.98
2022-06-02 13:54:47.382,0.230002775788307,-0.17,2.24,4,12.32
2022-06-02 13:54:47.496,0.343993306159973,-0.25,1.72,4,14.54
2022-06-02 13:54:47.611,0.45899972319603,-0.31,1.51,5,15.1
2022-06-02 13:54:47.725,0.573000311851501,-0.31,1.85,4,18.34
2022-06-02 13:54:47.841,0.689002498984337,-0.23,2.44,3,9.83
2022-06-02 13:54:47.955,0.802993029356003,-0.16,2.7,4,5.77
2022-06-02 13:54:48.069,0.916993618011475,-0.17,2.3,4,14.42
2022-06-02 13:54:48.184,1.03200003504753,-0.22,1.89,4,14.8
2022-06-02 13:54:48.299,1.14699639379978,-0.28,1.69,4,15.49
2022-06-02 13:54:48.413,1.26099698245525,-0.28,1.94,4,14.14
2022-06-02 13:54:48.524,1.37200020253658,-0.24,2.23,3,13.25
2022-06-02 13:54:48.639,1.48699656128883,-0.22,2.28,4,8.53
2022-06-02 13:54:48.754,1.60200297832489,-0.25,1.91,3,16.79
2022-06-02 13:54:48.868,1.71599350869656,-0.27,1.87,4,10.39
2022-06-02 13:54:48.983,1.83099992573261,-0.26,2.02,4,16.02
2022-06-02 13:54:49.097,1.94500051438808,-0.25,2.11,4,14.63
2022-06-02 13:54:49.213,2.06100270152092,-0.25,2.03,4,15.32
2022-06-02 13:54:49.327,2.17499323189259,-0.23,2.2,4,14.55
2022-06-02 13:54:49.442,2.28999964892864,0.0499999999999999,4.39,4,3.98
2022-06-02 13:54:49.557,2.40499600768089,1.78,17.12,3,-56.86
2022-06-02 13:54:49.671,2.51899659633636,5.55,28,4,-90
2022-06-02 13:54:49.785,2.63299718499184,9.79,28,4,-87.28
2022-06-02 13:54:49.901,2.74899937212467,13.02,28,4,-88.6
2022-06-02 13:54:50.015,2.86299996078014,15.06,28,3,-88.6
2022-06-02 13:54:50.129,2.97700054943562,16.84,28,4,-90
2022-06-02 13:54:50.244,3.09199690818787,18.49,28,3,-87.29
2022-06-02 13:54:50.355,3.2030001282692,20.68,28,4,-90
2022-06-02 13:54:50.469,3.31700071692467,23.37,28,4,-87.29
2022-06-02 13:54:50.584,3.43199707567692,26.02,28,4,-88.6
2022-06-02 13:54:50.699,3.54699343442917,28.28,28,4,-88.6
2022-06-02 13:54:50.814,3.66199985146523,29.42,28,4,-88.6
2022-06-02 13:54:50.928,3.7760004401207,29.89,28,3,-88.6
2022-06-02 13:54:51.042,3.89000102877617,31.81,28,4,-90
2022-06-02 13:54:51.158,4.0059931576252,25.61,28,4,-87.28
2022-06-02 13:54:51.272,4.11999374628067,10.42,-22,4,90
2022-06-02 13:54:51.387,4.23500016331673,-6.69,-22,4,90
2022-06-02 13:54:51.502,4.34999652206898,-18.43,-22,4,90
2022-06-02 13:54:51.616,4.46399711072445,-21.39,-22,4,90
2022-06-02 13:54:51.731,4.5789934694767,-16.62,-22,4,90
2022-06-02 13:54:51.846,4.69399988651276,-6.34,24.42,4,-90
2022-06-02 13:54:51.961,4.80899624526501,5.03,28,3,-90
2022-06-02 13:54:52.075,4.92299683392048,12.76,28,3,-90
2022-06-02 13:54:52.189,5.03699742257595,14.42,28,4,-90
2022-06-02 13:54:52.304,5.1519937813282,10.38,23.74,3,-65.96
2022-06-02 13:54:52.415,5.26299700140953,3.22,-16.44,4,90
2022-06-02 13:54:52.529,5.376997590065,-4.42,-22,3,90
2022-06-02 13:54:52.644,5.49199394881725,-9.51,-22,4,90
2022-06-02 13:54:52.759,5.60700036585331,-10.11,-22,4,90
2022-06-02 13:54:52.874,5.72199672460556,-6.65,-6.53,4,18.6
2022-06-02 13:54:52.989,5.83699308335781,-1.03,23.75,4,-90
2022-06-02 13:54:53.103,5.95099367201328,4.17,28,4,-90
2022-06-02 13:54:53.218,6.06600008904934,6.96,28,4,-88.6
2022-06-02 13:54:53.332,6.18000067770481,6.49,24.98,4,-73.46
2022-06-02 13:54:53.447,6.29499703645706,3.37,1.79,4,38.58
2022-06-02 13:54:53.562,6.40999339520931,-0.72,-17.56,3,90
2022-06-02 13:54:53.677,6.52499981224537,-4.06,-22,4,90
2022-06-02 13:54:53.791,6.63900040090084,-5.32,-22,4,90
2022-06-02 13:54:53.906,6.75399675965309,-4.11,-6.96,4,20.75
2022-06-02 13:54:54.021,6.86899311840534,-1.22,11.11,4,-48.96
2022-06-02 13:54:54.136,6.9839995354414,1.81,22.89,4,-85.19
2022-06-02 13:54:54.250,7.09800012409687,3.67,24.65,4,-78.52
2022-06-02 13:54:54.361,7.20899328589439,3.7,16.76,4,-36.77
2022-06-02 13:54:54.475,7.32299387454987,2.04,3.24,4,19.37
2022-06-02 13:54:54.590,7.43800029158592,-0.38,-9,4,62.94
2022-06-02 13:54:54.704,7.55200088024139,-2.41,-14.84,4,77.19
2022-06-02 13:54:54.819,7.66699723899364,-3.23,-12.54,3,58.04
2022-06-02 13:54:54.934,7.7819935977459,-2.47,-2.89,4,7.8
2022-06-02 13:54:55.049,7.89700001478195,-0.65,8.51,4,-29.77
2022-06-02 13:54:55.163,8.01100060343742,1.3,16.29,4,-55.44
2022-06-02 13:54:55.278,8.12599696218967,2.48,17.34,4,-50.63
2022-06-02 13:54:55.392,8.23999755084515,2.4,11.49,4,-19.98
2022-06-02 13:54:55.507,8.3549939095974,1.2,2.15,4,18.39
2022-06-02 13:54:55.622,8.47000032663345,-0.49,-6.23,4,48.23
2022-06-02 13:54:55.737,8.5849966853857,-1.83,-9.7,4,55.12
2022-06-02 13:54:55.851,8.69899727404118,-2.24,-7.15,4,37.82
2022-06-02 13:54:55.966,8.81399363279343,-1.6,-0.11,4,6.93
2022-06-02 13:54:56.076,8.92400108277798,-0.26,7.81,3,-23.06
2022-06-02 13:54:56.191,9.03899744153023,1.06,12.63,4,-42.14
2022-06-02 13:54:56.306,9.15399380028248,1.76,12.52,3,-29.81
2022-06-02 13:54:56.420,9.26799438893795,1.57,7.96,4,-14.28
2022-06-02 13:54:56.535,9.38300080597401,0.61,1.05,4,20.18
2022-06-02 13:54:56.650,9.49799716472626,-0.61,-4.65,4,38.61
2022-06-02 13:54:56.765,9.61299352347851,-1.51,-6.59,4,41.64
2022-06-02 13:54:56.879,9.72699411213398,-1.68,-3.99,3,27.05
2022-06-02 13:54:56.994,9.84200052917004,-1.12,1.26,3,-0.07
2022-06-02 13:54:57.109,9.95699688792229,-0.13,6.84,4,-19.66
2022-06-02 13:54:57.223,10.0709974765778,0.77,9.74,4,-22.19
2022-06-02 13:54:57.339,10.1869996637106,1.17,9.01,4,-16.55
2022-06-02 13:54:57.453,10.3010002523661,0.93,5.37,4,0.22
2022-06-02 13:54:57.568,10.4159966111183,0.2,0.51,4,19.67
2022-06-02 13:54:57.682,10.5299971997738,-0.65,-3.2,3,32.15
2022-06-02 13:54:57.792,10.6399945914745,-1.21,-3.93,4,26.6
2022-06-02 13:54:57.907,10.7550010085106,-1.27,-1.99,4,22.87
2022-06-02 13:54:58.022,10.8699973672628,-0.79,2.11,3,4.14
2022-06-02 13:54:58.137,10.9849937260151,-0.0700000000000001,5.88,4,-14.16
2022-06-02 13:54:58.251,11.0989943146706,0.55,7.72,3,-12.38
2022-06-02 13:54:58.366,11.2140007317066,0.78,6.87,4,-12.34
2022-06-02 13:54:58.481,11.3289970904589,0.5,3.61,4,8.79
2022-06-02 13:54:58.595,11.4429976791143,-0.0600000000000001,0.25,4,20.06
2022-06-02 13:54:58.711,11.5589998662472,-0.69,-2.32,3,28.83
2022-06-02 13:54:58.825,11.6730004549026,-1.05,-2.51,4,21.99
2022-06-02 13:54:58.939,11.7870010435581,-0.98,-0.35,3,17.75
2022-06-02 13:54:59.054,11.9019974023104,-0.56,2.74,4,-0.79
2022-06-02 13:54:59.169,12.0169937610626,0.0299999999999999,5.62,4,-4.78
2022-06-02 13:54:59.283,12.1309943497181,0.47,6.63,4,-7.55
2022-06-02 13:54:59.394,12.2419975697994,0.56,5.45,3,-0.56
2022-06-02 13:54:59.509,12.3569939285517,0.27,2.69,4,6.59
2022-06-02 13:54:59.623,12.4709945172071,-0.21,0.06,4,22.48
2022-06-02 13:54:59.738,12.5860009342432,-0.66,-1.43,4,25.53
2022-06-02 13:54:59.853,12.7009972929955,-0.86,-1.07,4,22.26
2022-06-02 13:54:59.968,12.8159936517477,-0.73,0.82,4,13.73
2022-06-02 13:55:00.082,12.9299942404032,-0.34,3.43,4,3.45
2022-06-02 13:55:00.197,13.0450006574392,0.11,5.29,4,-2.38
2022-06-02 13:55:00.311,13.1590012460947,0.36,5.39,3,-0.55
2022-06-02 13:55:00.426,13.273997604847,0.34,4.13,4,0.72
2022-06-02 13:55:00.540,13.3879981935024,0.0499999999999999,1.91,4,16.43
2022-06-02 13:55:00.655,13.5029945522547,-0.34,-0.04,4,22.12
2022-06-02 13:55:00.771,13.6189967393875,-0.66,-0.89,4,24.18
2022-06-02 13:55:00.885,13.732997328043,-0.74,-0.11,3,19.64
2022-06-02 13:55:00.995,13.8429947197437,-0.56,1.67,4,7.11
2022-06-02 13:55:01.111,13.9589969068766,-0.23,3.55,4,6.47
2022-06-02 13:55:01.224,14.0720017254353,0.0499999999999999,4.4,4,3.43
2022-06-02 13:55:01.339,14.1869980841875,0.19,4.27,4,5.16
2022-06-02 13:55:01.454,14.3019944429398,0.09,2.88,4,11.89
2022-06-02 13:55:01.569,14.4170008599758,-0.19,1.05,4,19.34
2022-06-02 13:55:01.684,14.5319972187281,-0.49,-0.17,4,23.34
2022-06-02 13:55:01.798,14.6459978073835,-0.67,-0.32,4,22.84
2022-06-02 13:55:01.913,14.7609941661358,-0.65,0.65,4,18.19
2022-06-02 13:55:02.027,14.8749947547913,-0.45,2.13,3,12.37
2022-06-02 13:55:02.142,14.9900011718273,-0.19,3.41,4,3.1
2022-06-02 13:55:02.257,15.1049975305796,0,3.82,3,8.99
2022-06-02 13:55:02.371,15.218998119235,0.1,3.71,4,3.75
2022-06-02 13:55:02.482,15.3300013393164,0,2.57,4,15.58
2022-06-02 13:55:02.597,15.4449976980686,-0.24,1.01,4,20.71
2022-06-02 13:55:02.711,15.5589982867241,-0.48,0.11,4,23.45
2022-06-02 13:55:02.826,15.6739946454763,-0.63,-0.02,4,23.25
2022-06-02 13:55:02.941,15.7890010625124,-0.59,0.93,3,18.71
2022-06-02 13:55:03.055,15.9030016511679,-0.42,2.14,4,9.2
2022-06-02 13:55:03.171,16.0189937800169,-0.16,3.52,3,10.23
2022-06-02 13:55:03.285,16.1329943686724,0.0299999999999999,3.92,4,3.82
2022-06-02 13:55:03.399,16.2469949573278,0.0499999999999999,3.26,4,13.86
2022-06-02 13:55:03.514,16.3620013743639,-0.0700000000000001,2.19,4,17.07
2022-06-02 13:55:03.629,16.4769977331161,-0.26,1.13,4,21.15
2022-06-02 13:55:03.744,16.5919940918684,-0.42,0.74,4,21.97
2022-06-02 13:55:03.859,16.7070005089045,-0.46,1.05,3,20.23
2022-06-02 13:55:03.973,16.8210010975599,-0.36,2.05,3,10.91
2022-06-02 13:55:04.083,16.9309984892607,-0.2,2.92,4,9.23
2022-06-02 13:55:04.199,17.0470006763935,-0.04,3.53,4,12.36
2022-06-02 13:55:04.313,17.161001265049,0.0399999999999999,3.43,4,12.35
2022-06-02 13:55:04.427,17.2750018537045,0.0199999999999999,2.96,4,14.63
2022-06-02 13:55:04.542,17.3899982124567,-0.0900000000000001,2.13,4,18.29
2022-06-02 13:55:04.657,17.504994571209,-0.27,1.2,4,22.03
2022-06-02 13:55:04.772,17.620000988245,-0.38,1.09,4,21.6
2022-06-02 13:55:04.887,17.7349973469973,-0.4,1.39,3,20.21
2022-06-02 13:55:05.001,17.8489979356527,-0.3,2.31,4,11.24
2022-06-02 13:55:05.116,17.963994294405,-0.14,3.13,4,14.71
2022-06-02 13:55:05.230,18.0779948830605,-0.02,3.38,4,13.35
2022-06-02 13:55:05.345,18.1930013000965,-0.02,2.9,4,16.12
2022-06-02 13:55:05.459,18.307001888752,-0.13,2.03,3,19.92
2022-06-02 13:55:05.574,18.4219982475042,-0.27,1.32,4,17.54
2022-06-02 13:55:05.685,18.5330014675856,-0.39,1,3,24.64
2022-06-02 13:55:05.799,18.647002056241,-0.45,1.07,4,17.86
2022-06-02 13:55:05.914,18.7619984149933,-0.41,1.61,4,21.74
2022-06-02 13:55:06.029,18.8769947737455,-0.3,2.31,4,17.83
2022-06-02 13:55:06.144,18.9920011907816,-0.16,2.96,4,15.66
2022-06-02 13:55:06.258,19.1060017794371,-0.03,3.39,4,14.44
2022-06-02 13:55:06.373,19.2209981381893,0.01,3.2,4,16.05
2022-06-02 13:55:06.487,19.3349987268448,-0.0600000000000001,2.43,4,19.69
2022-06-02 13:55:06.602,19.449995085597,-0.22,1.41,4,23.94
2022-06-02 13:55:06.717,19.5650015026331,-0.32,1.32,3,23.3
2022-06-02 13:55:06.832,19.6799978613853,-0.37,1.42,3,17.9
2022-06-02 13:55:06.947,19.7949942201376,-0.3,2.17,4,15.74
2022-06-02 13:55:07.061,19.9089948087931,-0.17,2.88,3,18.29
2022-06-02 13:55:07.176,20.0240012258291,-0.0600000000000001,3.2,3,11.39
2022-06-02 13:55:07.291,20.1389975845814,0.01,3.29,3,12.63
2022-06-02 13:55:07.401,20.2489949762821,0,2.91,4,14.66
2022-06-02 13:55:07.516,20.3640013933182,-0.0700000000000001,2.38,3,21.79
2022-06-02 13:55:07.631,20.4789977520704,-0.18,1.81,3,17.81
2022-06-02 13:55:07.745,20.5929983407259,-0.27,1.57,4,19.68
2022-06-02 13:55:07.860,20.7079946994781,-0.28,1.89,4,22.89
2022-06-02 13:55:07.974,20.8219952881336,-0.21,2.49,4,19.2
2022-06-02 13:55:08.089,20.9370017051697,-0.0700000000000001,3.3,3,16.05
2022-06-02 13:55:08.204,21.0519980639219,0.0299999999999999,3.48,4,11.27
2022-06-02 13:55:08.319,21.1669944226742,0.0499999999999999,3.27,4,18.84
2022-06-02 13:55:08.433,21.2809950113297,-0.02,2.6,3,20.68
2022-06-02 13:55:08.548,21.3960014283657,-0.16,1.77,4,19.05
2022-06-02 13:55:08.662,21.5100020170212,-0.29,1.31,4,26.7
2022-06-02 13:55:08.777,21.6249983757734,-0.37,1.25,4,25.33
2022-06-02 13:55:08.891,21.7389989644289,-0.36,1.69,4,23.31
2022-06-02 13:55:09.003,21.850997954607,-0.25,2.46,4,20.23
2022-06-02 13:55:09.117,21.9649985432625,-0.0900000000000001,3.33,3,17.02
2022-06-02 13:55:09.232,22.0799949020147,0.0499999999999999,3.8,4,10.91
2022-06-02 13:55:09.347,22.1950013190508,0.1,3.57,3,18.92
2022-06-02 13:55:09.462,22.309997677803,0.0599999999999999,2.99,4,15.2
2022-06-02 13:55:09.576,22.4239982664585,-0.1,1.92,4,26.14
2022-06-02 13:55:09.691,22.5389946252108,-0.27,1.16,3,27.4
2022-06-02 13:55:09.805,22.6529952138662,-0.36,1.25,4,21.22
2022-06-02 13:55:09.920,22.7680016309023,-0.33,1.86,3,24.78
2022-06-02 13:55:10.034,22.8820022195578,-0.19,2.87,4,14.4
2022-06-02 13:55:10.149,22.99699857831,-0.03,3.55,4,18.66
2022-06-02 13:55:10.264,23.1119949370623,0.08,3.73,4,17.36
2022-06-02 13:55:10.379,23.2270013540983,0.07,3.2,4,20.25
2022-06-02 13:55:10.493,23.3410019427538,-0.03,2.38,3,23.76
2022-06-02 13:55:10.604,23.4519951045513,-0.16,1.85,4,20.48
2022-06-02 13:55:10.719,23.5670015215874,-0.28,1.38,4,28.54
2022-06-02 13:55:10.832,23.6799962818623,-0.33,1.5,4,26.27
2022-06-02 13:55:10.947,23.7950026988983,-0.29,2.07,3,23.81
2022-06-02 13:55:11.062,23.9099990576506,-0.16,2.92,4,15.45
2022-06-02 13:55:11.178,24.0260012447834,-0.01,3.59,4,19.53
2022-06-02 13:55:11.292,24.1400018334389,0.09,3.74,4,18.4
2022-06-02 13:55:11.407,24.2549981921911,0.08,3.24,4,21.14
2022-06-02 13:55:11.521,24.3689987808466,-0.03,2.33,4,25.09
2022-06-02 13:55:11.635,24.4829993695021,-0.18,1.61,3,27.64
2022-06-02 13:55:11.751,24.5990015566349,-0.28,1.51,4,22.43
2022-06-02 13:55:11.865,24.7130021452904,-0.29,1.85,3,27.03
2022-06-02 13:55:11.980,24.8279985040426,-0.21,2.57,4,17.79
2022-06-02 13:55:12.095,24.9429948627949,-0.0800000000000001,3.21,4,21.87
2022-06-02 13:55:12.209,25.0569954514503,0.0299999999999999,3.57,3,19.64
2022-06-02 13:55:12.319,25.1670029014349,0.08,3.47,3,15.69
2022-06-02 13:55:12.435,25.2829950302839,0.0399999999999999,2.92,3,19.58
2022-06-02 13:55:12.549,25.3969956189394,-0.0900000000000001,2.07,4,23.11
2022-06-02 13:55:12.664,25.5120020359755,-0.23,1.48,4,30.03
2022-06-02 13:55:12.779,25.6269983947277,-0.31,1.48,3,28.18
2022-06-02 13:55:12.893,25.7409989833832,-0.31,1.84,4,21.61
2022-06-02 13:55:13.008,25.8559953421354,-0.2,2.67,4,24.32
2022-06-02 13:55:13.122,25.9699959307909,-0.0700000000000001,3.29,4,21.15
2022-06-02 13:55:13.237,26.085002347827,0.01,3.32,3,21.86
2022-06-02 13:55:13.352,26.1999987065792,0.01,2.99,4,18.6
2022-06-02 13:55:13.467,26.3149950653315,-0.04,2.57,4,26.61
2022-06-02 13:55:13.581,26.4289956539869,-0.15,1.92,4,28.1
2022-06-02 13:55:13.696,26.544002071023,-0.26,1.56,4,29.24
2022-06-02 13:55:13.811,26.6589984297752,-0.31,1.58,3,28.91
2022-06-02 13:55:13.922,26.7700016498566,-0.3,1.9,5,22.57
2022-06-02 13:55:14.036,26.884002238512,-0.26,2.2,4,32.89
2022-06-02 13:55:14.151,26.9989985972643,-0.16,2.79,4,22.93
2022-06-02 13:55:14.265,27.1129991859198,-0.0900000000000001,2.92,4,24.53
2022-06-02 13:55:14.380,27.227995544672,-0.0700000000000001,2.8,4,25.35
2022-06-02 13:55:14.495,27.3430019617081,-0.13,2.22,4,28.21
2022-06-02 13:55:14.609,27.4570025503635,-0.25,1.53,3,31.08
2022-06-02 13:55:14.724,27.5719989091158,-0.36,1.14,4,27.34
2022-06-02 13:55:14.839,27.686995267868,-0.42,1.17,4,33.16
2022-06-02 13:55:14.954,27.8020016849041,-0.38,1.72,4,29.39
2022-06-02 13:55:15.068,27.9160022735596,-0.31,2.1,4,28.45
2022-06-02 13:55:15.183,28.0309986323118,-0.26,2.26,4,28.29
2022-06-02 13:55:15.297,28.1449992209673,-0.21,2.38,4,28.08
2022-06-02 13:55:15.412,28.2599955797195,-0.19,2.34,3,28.59
2022-06-02 13:55:15.527,28.3750019967556,-0.22,1.99,4,25.41
2022-06-02 13:55:15.637,28.4849993884563,-0.28,1.71,4,32.77
2022-06-02 13:55:15.752,28.5999957472086,-0.34,1.38,4,32.95
2022-06-02 13:55:15.867,28.7150021642447,-0.36,1.52,4,32.06
2022-06-02 13:55:15.981,28.8290027529001,-0.32,1.99,4,30.14
2022-06-02 13:55:16.096,28.9439991116524,-0.23,2.48,4,28.45
2022-06-02 13:55:16.211,29.0589954704046,-0.18,2.54,3,28.94
2022-06-02 13:55:16.325,29.1729960590601,-0.16,2.4,3,24.87
2022-06-02 13:55:16.441,29.2889982461929,-0.14,2.54,4,25.34
2022-06-02 13:55:16.555,29.4029988348484,-0.18,2.16,4,32.47
2022-06-02 13:55:16.669,29.5169994235039,-0.23,1.88,4,32.25
2022-06-02 13:55:16.784,29.6319957822561,-0.27,1.76,4,32.65
2022-06-02 13:55:16.899,29.7470021992922,-0.27,2,4,31.49
2022-06-02 13:55:17.013,29.8610027879477,-0.24,2.21,4,30.97
2022-06-02 13:55:17.128,29.9759991466999,-0.2,2.35,4,30.67
2022-06-02 13:55:17.243,30.0909955054522,-0.18,2.4,4,30.77
2022-06-02 13:55:17.353,30.2010029554367,-0.15,2.53,4,30.34
2022-06-02 13:55:17.468,30.315999314189,-0.12,2.61,4,30.26
2022-06-02 13:55:17.583,30.4309956729412,-0.14,2.37,3,31.69
2022-06-02 13:55:17.697,30.5449962615967,-0.17,2.22,3,27.25
2022-06-02 13:55:17.812,30.6600026786327,-0.19,2.13,3,28.88
2022-06-02 13:55:17.926,30.7739932090044,-0.22,2.04,4,29.29
2022-06-02 13:55:18.041,30.8889996260405,-0.17,2.51,4,31.96
2022-06-02 13:55:18.157,31.0050018131733,-0.14,2.61,4,30.87
2022-06-02 13:55:18.271,31.1190024018288,-0.12,2.61,4,31.12
2022-06-02 13:55:18.386,31.233998760581,-0.13,2.46,3,32.03
2022-06-02 13:55:18.500,31.3479993492365,-0.15,2.32,3,27.65
2022-06-02 13:55:18.615,31.4629957079887,-0.17,2.27,4,29.1
2022-06-02 13:55:18.729,31.5769962966442,-0.15,2.44,3,33.25
2022-06-02 13:55:18.845,31.692998483777,-0.17,2.29,4,28.03
2022-06-02 13:55:18.955,31.8029958754778,-0.2,2.08,4,35.26
2022-06-02 13:55:19.069,31.9169964641333,-0.21,2.1,4,33.76
2022-06-02 13:55:19.184,32.0320028811693,-0.21,2.19,4,33.5
2022-06-02 13:55:19.298,32.145993411541,-0.19,2.38,4,32.88
2022-06-02 13:55:19.413,32.260999828577,-0.15,2.54,4,32.44
2022-06-02 13:55:19.528,32.3759961873293,-0.18,2.21,4,34.44
2022-06-02 13:55:19.643,32.4910026043653,-0.22,1.93,3,35.55
2022-06-02 13:55:19.757,32.604993134737,-0.27,1.71,4,31.48
2022-06-02 13:55:19.872,32.7199995517731,-0.29,1.86,4,36.89
2022-06-02 13:55:19.987,32.8349959105253,-0.29,1.88,4,35.85
2022-06-02 13:55:20.102,32.9500023275614,-0.24,2.29,4,34.02
2022-06-02 13:55:20.217,33.0649986863136,-0.15,2.77,4,32.35
2022-06-02 13:55:20.331,33.1789992749691,-0.0800000000000001,3.02,4,31.82
2022-06-02 13:55:20.446,33.2939956337214,-0.0600000000000001,2.79,3,33.37
2022-06-02 13:55:20.561,33.4090020507574,-0.11,2.31,4,30.58
2022-06-02 13:55:20.671,33.5189994424582,-0.21,1.77,3,39.07
2022-06-02 13:55:20.785,33.6330000311136,-0.33,1.22,4,34.99
2022-06-02 13:55:20.901,33.7490022182465,-0.4,1.18,4,40.95
2022-06-02 13:55:21.015,33.8630028069019,-0.4,1.47,4,38.38
2022-06-02 13:55:21.130,33.9779991656542,-0.29,2.37,4,34.49
2022-06-02 13:55:21.244,34.0919997543097,-0.13,3.22,3,31.55
2022-06-02 13:55:21.359,34.2069961130619,0.28,5.74,4,15.11
2022-06-02 13:55:21.474,34.322002530098,1.12,10.77,4,-0.65
2022-06-02 13:55:21.589,34.4369988888502,2.56,18.74,4,-35.87
2022-06-02 13:55:21.703,34.5509994775057,4.79,28,4,-73.09
2022-06-02 13:55:21.817,34.6650000661612,7.51,28,3,-88.6
2022-06-02 13:55:21.932,34.7799964249134,9.96,28,4,-90
2022-06-02 13:55:22.047,34.8950028419495,11.87,28,4,-87.29
2022-06-02 13:55:22.162,35.0099992007017,13.37,28,4,-88.6
2022-06-02 13:55:22.277,35.124995559454,14.8,28,3,-88.6
2022-06-02 13:55:22.391,35.2389961481094,16.19,28,4,-90
2022-06-02 13:55:22.502,35.3499993681908,17.54,28,4,-87.29
2022-06-02 13:55:22.617,35.464995726943,18.93,28,4,-88.6
2022-06-02 13:55:22.731,35.5789963155985,20.51,28,4,-88.6
2022-06-02 13:55:22.846,35.6940027326345,22.3,28,3,-88.6
2022-06-02 13:55:22.961,35.8089990913868,24.06,28,4,-90
2022-06-02 13:55:23.075,35.9229996800423,26.2,28,3,-87.29
2022-06-02 13:55:23.189,36.0370002686977,28.72,28,4,-90
2022-06-02 13:55:23.304,36.15199662745,30.79,28,4,-87.29
2022-06-02 13:55:23.420,36.2679988145828,33.17,28,3,-88.6
2022-06-02 13:55:23.534,36.3819994032383,25.91,28,4,-90
2022-06-02 13:55:23.649,36.4969957619905,9.81,-22,4,90
2022-06-02 13:55:23.763,36.610996350646,-7.5,-22,4,90
2022-06-02 13:55:23.878,36.7260027676821,-18.9,-22,3,90
2022-06-02 13:55:23.993,36.8409991264343,-21.42,-22,4,90
2022-06-02 13:55:24.107,36.9549997150898,-15.97,-22,4,90
2022-06-02 13:55:24.222,37.069996073842,-5.26,28,4,-90
2022-06-02 13:55:24.337,37.1850024908781,6.43,28,4,-88.6
2022-06-02 13:55:24.451,37.2989930212498,14.14,28,4,-88.6
2022-06-02 13:55:24.562,37.4099962413311,15.48,28,4,-88.6
2022-06-02 13:55:24.677,37.5250026583672,11.28,26.31,3,-80.14
2022-06-02 13:55:24.791,37.6389931887388,3.83,-15.37,4,90
2022-06-02 13:55:24.906,37.7539996057749,-4.06,-22,3,90
2022-06-02 13:55:25.021,37.8689959645271,-9.21,-22,4,90
2022-06-02 13:55:25.135,37.9829965531826,-9.69,-22,4,90
2022-06-02 13:55:25.250,38.0980029702187,-5.98,-2.96,4,0.71
2022-06-02 13:55:25.365,38.2129993289709,-0.02,28,4,-90
2022-06-02 13:55:25.479,38.3269999176264,5.32,28,4,-88.6
2022-06-02 13:55:25.593,38.4410005062819,8.05,28,4,-88.6
2022-06-02 13:55:25.709,38.5570026934147,7.4,27.45,3,-85.86
2022-06-02 13:55:25.823,38.6709932237864,4.09,3.68,4,27.37
2022-06-02 13:55:25.938,38.7859996408224,-0.19,-16.48,4,90
2022-06-02 13:55:26.053,38.9009959995747,-3.65,-22,4,90
2022-06-02 13:55:26.167,39.0149965882301,-4.97,-21.24,4,90
2022-06-02 13:55:26.282,39.1300030052662,-3.71,-5.25,3,13.17
2022-06-02 13:55:26.396,39.2439935356379,-0.63,14.07,4,-66.64
2022-06-02 13:55:26.507,39.3549967557192,2.64,27.04,4,-90
2022-06-02 13:55:26.622,39.4699931144714,4.6,28,4,-89.85
2022-06-02 13:55:26.737,39.5849995315075,4.59,19.91,4,-48.11
2022-06-02 13:55:26.851,39.699000120163,2.76,5.14,4,15.14
2022-06-02 13:55:26.966,39.8139964789152,0.12,-8.13,4,62.08
2022-06-02 13:55:27.081,39.9290028959513,-2.1,-14.54,4,76.83
2022-06-02 13:55:27.195,40.0429934263229,-3,-12.03,4,55.88
2022-06-02 13:55:27.311,40.1589956134558,-2.19,-1.58,3,6.92
2022-06-02 13:55:27.424,40.2720004320145,-0.22,10.71,4,-45.41
2022-06-02 13:55:27.539,40.3869967907667,1.92,19.47,4,-67.26
2022-06-02 13:55:27.653,40.5009973794222,3.21,20.47,3,-62.14
2022-06-02 13:55:27.768,40.6159937381744,3.12,14.07,3,-33.8
2022-06-02 13:55:27.883,40.7310001552105,1.77,3.63,4,10.36
2022-06-02 13:55:27.998,40.8459965139627,-0.11,-5.64,4,47.99
2022-06-02 13:55:28.112,40.9599971026182,-1.61,-9.54,3,55.07
2022-06-02 13:55:28.227,41.0749934613705,-2.11,-7.09,4,32.71
2022-06-02 13:55:28.338,41.1859966814518,-1.41,0.85,4,3.47
2022-06-02 13:55:28.453,41.300993040204,0.07,9.68,4,-31.36
2022-06-02 13:55:28.567,41.4149936288595,1.58,15.4,3,-48.88
2022-06-02 13:55:28.682,41.5300000458956,2.39,15.34,4,-46.77
2022-06-02 13:55:28.797,41.6449964046478,2.17,10.07,4,-14.21
2022-06-02 13:55:28.911,41.7589969933033,1.08,2.18,4,16.53
2022-06-02 13:55:29.026,41.8739933520555,-0.32,-4.37,4,39.1
2022-06-02 13:55:29.141,41.9889997690916,-1.37,-6.69,3,42.89
2022-06-02 13:55:29.256,42.1039961278439,-1.59,-3.91,3,21.9
2022-06-02 13:55:29.371,42.2190025448799,-0.94,2.35,3,-3.83
2022-06-02 13:55:29.485,42.3329930752516,0.2,8.68,4,-27.21
2022-06-02 13:55:29.599,42.4469936639071,1.23,12.01,4,-31.12
2022-06-02 13:55:29.714,42.5620000809431,1.71,11.41,3,-25.76
2022-06-02 13:55:29.829,42.6769964396954,1.41,6.84,4,-9.38
2022-06-02 13:55:29.943,42.7909970283508,0.52,1.01,4,19.75
2022-06-02 13:55:30.054,42.9020002484322,-0.54,-3.67,3,34.47
2022-06-02 13:55:30.169,43.0169966071844,-1.23,-4.61,4,28.75
2022-06-02 13:55:30.283,43.1309971958399,-1.26,-1.86,3,20.77
2022-06-02 13:55:30.398,43.2459935545921,-0.68,3,4,-5.72
2022-06-02 13:55:30.513,43.3609999716282,0.23,7.76,4,-16.86
2022-06-02 13:55:30.627,43.4750005602837,0.97,9.83,4,-22.59
2022-06-02 13:55:30.742,43.5899969190359,1.22,8.59,4,-14.2
2022-06-02 13:55:30.857,43.7049932777882,0.88,4.68,4,3.3
2022-06-02 13:55:30.972,43.8199996948242,0.11,0.05,4,21.28
2022-06-02 13:55:31.087,43.9349960535765,-0.7,-3.19,4,31.75
2022-06-02 13:55:31.201,44.0489966422319,-1.14,-3.2,4,28.23
2022-06-02 13:55:31.316,44.1639930009842,-1.02,-0.27,4,14.19
2022-06-02 13:55:31.431,44.2789994180202,-0.43,3.98,4,-2.84
2022-06-02 13:55:31.545,44.3930000066757,0.33,7.49,4,-14.78
2022-06-02 13:55:31.655,44.5029973983765,0.88,8.6,4,-16.09
2022-06-02 13:55:31.771,44.6189995855093,0.95,6.81,4,-6.09